User: anonymous   Login
Location: McLaughlin
(0.0000°N, 0.0000°E)
Time: 12:44:41
(UTC+00:00)
Language:

Hubble Space Telescope - Orbit

View from above orbital plane
View from above orbital plane
View from above satellite
View from above satellite

Ground track
Ground track

The orbit data is extracted from the following two-line orbital elements,

1 20580U 90037B   19230.96852290 +.00000346 +00000-0 +10097-4 0  9994
2 20580 028.4696 166.7376 0002829 069.9625 290.1293 15.09254890410156
Epoch (UTC): 18 August 2019 23:14:40
Eccentricity: 0.0002829
inclination: 28.4696°
perigee height: 536 km
apogee height: 540 km
right ascension of ascending node: 166.7376°
argument of perigee: 69.9625°
revolutions per day: 15.09254890
mean anomaly at epoch: 290.1293°
orbit number at epoch: 41015

The dashed part of the orbit path shows where the satellite is in the earth's shadow,  

DLR